Corona, CA

5:44 PM PST on February 27, 2017 (GMT -0800)
Corona Municipal

Weather History for KAJO - December, 2013

Change the Weather History Date:

Sunday, December 1, 2013

  Actual Average (KCNO) Record (KCNO)
Temperature  
Mean Temperature 59 °F -  
Max Temperature 81 °F 66 °F 84 °F (2008)
Min Temperature 37 °F 38 °F 27 °F (2004)
Degree Days  
Heating Degree Days 6    
Growing Degree Days 9 (Base 50)    
Moisture  
Dew Point 33 °F    
Average Humidity 38    
Maximum Humidity 100    
Minimum Humidity 11    
Precipitation  
Precipitation 0.00 in - - ()
Sea Level Pressure  
Sea Level Pressure 30.16 in    
Wind  
Wind Speed 1 mph (ESE)    
Max Wind Speed 10 mph    
Max Gust Speed -    
Visibility 10 miles    
Events      
Averages and records for this station are not official NWS values.
T = Trace of Precipitation, MM = Missing Value Source: NWS Daily Summary

Daily Weather History Graph

Daily Weather History Graph

Search for Another Location

Airport or City:

Trip Planner

Search our weather history database for the weather conditions in past years. The results will help you decide how hot, cold, wet, or windy it might be!

Date:

Astronomy

Dec. 01, 2013 Rise Set
Actual Time 6:37 AM PST 4:41 PM PST
Civil Twilight 6:10 AM PST 5:08 PM PST
Nautical Twilight 5:39 AM PST 5:39 PM PST
Astronomical Twilight 5:09 AM PST 6:09 PM PST
Moon 5:04 AM PST (12/1) 3:52 PM PST (12/1)
Length of Visible Light 10h 58m
Length of Day
10h 03m
Waning Crescent, 2% of the Moon is Illuminated
Dec 1
Waning Crescent
Dec 2
New
Dec 9
First Quarter
Dec 17
Full
Dec 25
Last Quarter

Hourly Weather History & Observations

Time (PST) Temp. Dew Point Humidity Pressure Visibility Wind Dir Wind Speed Gust Speed Precip Events Conditions
12:56 AM 45.0 °F 45.0 °F 100% 30.15 in 10.0 mi Calm Calm - N/A   Clear
1:56 AM 45.0 °F - N/A% 30.16 in 10.0 mi Calm Calm - N/A   Clear
2:56 AM 43.0 °F - N/A% 30.16 in 10.0 mi Calm Calm - N/A   Clear
3:56 AM 41.0 °F - N/A% 30.18 in 10.0 mi Calm Calm - N/A   Clear
4:56 AM 39.9 °F - N/A% 30.19 in 10.0 mi Calm Calm - N/A   Clear
5:56 AM 39.9 °F - N/A% 30.19 in 10.0 mi Calm Calm - N/A   Clear
6:56 AM 37.9 °F - N/A% 30.21 in 10.0 mi Calm Calm - N/A   Clear
7:56 AM 43.9 °F - N/A% 30.23 in 10.0 mi Calm Calm - N/A   Clear
8:56 AM 57.9 °F 45.9 °F 64% 30.23 in 10.0 mi Calm Calm - N/A   Clear
9:56 AM 72.9 °F 32.9 °F 23% 30.22 in 10.0 mi SE 10.4 mph - N/A   Clear
10:56 AM 77.0 °F 31.1 °F 19% 30.19 in 10.0 mi ESE 6.9 mph - N/A   Clear
11:56 AM 79.9 °F 32.9 °F 18% 30.15 in 10.0 mi ESE 5.8 mph - N/A   Clear
12:56 PM 79.9 °F 30.0 °F 16% 30.13 in 10.0 mi Calm Calm - N/A   Clear
1:56 PM 81.9 °F 23.0 °F 11% 30.11 in 10.0 mi Calm Calm - N/A   Clear
2:56 PM 81.9 °F 24.1 °F 12% 30.09 in 10.0 mi Calm Calm - N/A   Clear
3:56 PM 79.0 °F 26.1 °F 14% 30.09 in 10.0 mi Calm Calm - N/A   Clear
4:56 PM 68.9 °F 29.1 °F 23% 30.12 in - Calm Calm - N/A   Clear
5:49 PM 60.8 °F 32.0 °F 34% 30.14 in 2.5 mi Calm Calm - N/A   Haze
5:56 PM 57.9 °F 32.0 °F 37% 30.14 in 7.0 mi Calm Calm - N/A   Clear
6:56 PM 57.9 °F 32.0 °F 37% 30.15 in 10.0 mi Calm Calm - N/A   Clear
7:56 PM 61.9 °F 30.0 °F 30% 30.15 in 10.0 mi Calm Calm - N/A   Clear
8:56 PM 56.8 °F 32.0 °F 39% 30.15 in 10.0 mi Calm Calm - N/A   Clear
9:56 PM 48.9 °F 34.9 °F 58% 30.16 in 10.0 mi Calm Calm - N/A   Clear
10:56 PM 45.9 °F 36.9 °F 71% 30.17 in 10.0 mi Calm Calm - N/A   Clear
11:56 PM 43.9 °F 37.9 °F 80% 30.14 in 10.0 mi Calm Calm - N/A   Clear